Tracking 18795 objects as of 24-August-2017
HD Live streaming from Space Station
objects crossing your sky now

CZ-4 DEB

Track CZ-4 DEB now!
10-day predictions


NORAD ID: 26650
Int'l Code: 1999-057LG
Perigee: 631.4 km
Apogee: 646.6 km
Inclination: 98.5 °
Period: 97.3 minutes
Semi major axis: 7009 km
RCS: 0.0056 m2 (small)
Launch date: October 14, 1999
Source: People's Republic of China (PRC)
Launch site: Taiyaun Space Center, China (TSC)

Note: This is SATELLITE DEBRIS
Your satellite tracking list
Your tracking list is empty





NASA's NSSDC Master Catalog

Two Line Element Set (TLE):
1 26650U 99057LG  17236.22788337  .00000573  00000-0  85050-4 0  9995
2 26650  98.5269 325.2894 0010819 342.3790  71.1120 14.79200406920893
Source of the keplerian elements: AFSPC